Wind_Speed
37 38 36 37 37 38 40 40 38 36 36 38 38 39 41 37 34 36 37 34 35 33 30 26 25 26 27 30 27 12 10 15 17 16 18 14 12 13 11 9 10 13 5 3 7 24 14 5 52 62 56 44 59 61
39 38 37 39 36 38 41 38 35 34 33 36 37 38 39 37 34 35 34 33 33 33 29 28 23 23 26 25 26 13 7 12 16 13 17 17 17 15 9 8 9 9 10 15 13 15 18 46 51 54 47 47 47 55
41 40 40 41 40 38 37 33 32 33 33 36 35 37 38 36 34 33 33 29 29 30 29 24 21 22 21 22 22 19 6 5 11 12 14 14 22 19 14 13 12 13 9 17 6 12 20 40 41 49 32 60 38 53
41 43 41 41 40 39 38 35 32 33 32 36 35 36 38 35 34 33 31 29 27 26 28 27 20 16 17 18 16 20 11 10 7 10 8 10 14 17 21 11 7 7 12 7 6 10 14 24 46 46 41 61 38 57
40 43 41 39 38 37 35 32 33 32 33 34 34 35 35 34 32 31 28 28 25 25 25 22 22 15 12 14 15 18 14 11 8 6 7 9 12 11 19 15 10 5 5 6 1 9 9 17 14 34 42 48 37 31
40 41 39 37 36 36 35 32 30 32 35 33 33 34 33 31 31 29 26 24 23 22 23 22 22 17 12 14 12 9 12 9 4 3 3 7 10 8 11 16 18 13 6 3 5 6 7 8 37 31 23 39 40 33
40 39 37 37 35 35 33 32 32 33 34 32 32 33 30 28 30 28 26 24 20 19 20 21 19 14 4 8 8 5 7 9 10 8 1 2 5 5 8 10 12 12 13 9 2 1 7 4 19 32 27 32 42 37
38 38 39 39 40 38 38 37 35 35 36 33 32 31 28 28 29 25 24 22 19 18 19 18 18 15 9 6 7 6 3 6 7 9 7 3 6 10 9 8 7 8 9 5 4 5 4 2 5 14 26 33 35 37
36 39 41 40 39 40 39 38 33 32 33 32 30 30 27 25 26 22 21 19 17 17 16 17 16 14 10 5 7 5 5 4 5 7 6 6 7 8 11 11 8 2 2 4 2 4 6 3 1 10 11 29 30 29
40 39 37 39 39 37 38 37 34 32 31 31 32 32 25 22 23 19 16 14 14 14 16 15 13 14 11 7 8 6 8 6 5 4 5 7 9 11 14 13 8 3 5 0 2 1 5 7 7 9 8 9 22 26
33 32 32 32 33 33 35 36 35 33 33 32 30 23 20 21 20 17 15 13 13 12 13 12 12 12 12 9 8 9 7 8 7 8 6 5 6 9 12 11 7 2 8 5 2 3 8 10 11 12 12 7 10 24
31 33 34 34 34 32 31 30 29 27 24 23 20 17 18 19 15 15 15 12 12 12 10 10 10 12 13 10 7 7 5 7 11 13 9 8 9 7 8 10 9 1 10 11 7 2 12 15 16 16 18 20 14 16
35 36 36 35 34 33 32 31 28 23 22 19 17 16 18 19 17 15 14 12 12 13 11 11 10 11 11 10 8 7 7 7 8 13 15 13 10 11 8 9 9 7 1 7 10 4 11 16 16 20 22 23 22 17
39 39 39 38 36 34 33 31 29 27 22 20 18 19 21 20 17 16 15 13 12 15 15 12 12 11 13 11 10 9 9 9 10 9 13 15 13 14 11 14 12 10 3 5 11 10 9 17 15 23 26 25 26 22
44 44 42 41 39 38 36 33 29 27 26 25 22 18 21 19 18 17 17 15 16 15 14 18 16 16 16 14 13 12 11 11 10 8 5 10 11 13 16 14 10 12 11 8 10 16 14 12 13 20 23 27 31 31
49 47 44 43 41 41 38 37 32 30 27 25 21 22 24 21 20 20 19 16 17 15 19 17 21 15 18 17 14 13 12 12 11 6 6 11 13 18 19 14 12 13 15 13 9 16 21 17 17 20 21 24 24 29
50 49 47 44 42 41 38 36 35 33 32 30 25 25 28 25 22 22 23 19 19 18 22 19 22 23 20 15 13 16 14 12 14 12 10 7 10 19 22 17 12 13 12 16 15 11 15 22 25 21 19 20 25 28
51 49 47 45 42 43 44 44 44 42 35 33 31 28 32 30 26 24 24 24 24 20 20 17 25 28 19 11 15 17 13 13 12 14 12 8 12 15 15 11 12 14 11 11 13 16 13 12 14 15 16 20 24 28
53 53 52 50 48 45 44 43 41 41 37 38 37 33 32 31 30 28 26 26 26 25 26 23 25 21 21 17 19 20 16 15 12 12 12 8 7 9 9 11 11 12 12 12 11 12 15 17 16 16 17 17 19 25
56 55 53 52 50 49 48 47 46 44 40 39 38 38 37 35 35 33 29 27 29 29 27 24 22 22 24 24 26 22 17 17 17 17 14 10 5 10 10 9 9 11 10 10 12 11 13 16 14 15 19 20 22 23
57 55 54 52 50 49 45 45 43 42 39 37 36 38 38 38 36 35 34 33 33 29 27 27 26 25 24 25 26 26 20 21 20 18 15 15 15 19 18 9 9 10 10 9 9 10 12 17 16 16 18 20 20 21
60 59 56 55 52 50 47 45 45 42 38 37 35 35 35 34 35 35 36 36 34 30 28 28 29 28 27 25 25 24 23 18 17 15 13 15 18 21 19 12 11 12 9 11 9 10 12 15 15 16 18 21 20 20
55 54 52 50 49 46 43 44 42 41 39 36 36 36 34 33 31 31 33 35 36 35 35 33 29 28 28 26 26 24 22 20 19 15 16 14 14 17 16 16 13 12 13 10 7 9 12 13 13 14 14 16 17 15
41 40 40 39 39 38 38 36 36 36 36 35 34 33 32 32 32 31 32 33 33 33 33 33 32 28 28 28 24 22 24 23 21 21 21 20 15 17 17 18 19 19 15 16 14 9 7 12 14 12 12 15 16 16
18 20 20 20 21 21 24 28 29 28 26 24 23 24 24 26 26 26 28 30 29 31 30 30 29 27 25 27 26 23 26 24 24 22 21 17 17 16 17 20 21 21 14 12 10 11 11 13 15 13 12 14 14 16
17 18 20 21 23 23 20 15 16 19 20 22 21 20 19 18 17 20 21 23 24 24 24 24 25 27 26 28 26 20 22 25 22 23 20 20 18 17 17 18 20 19 18 19 19 14 10 16 17 17 15 15 15 15
20 20 21 26 29 27 20 19 11 16 18 20 17 16 16 8 9 5 9 4 13 17 19 22 21 20 23 25 28 32 32 27 23 20 18 18 18 21 19 17 20 23 24 23 21 18 16 20 19 18 17 15 15 17
24 26 26 25 26 27 24 15 13 11 16 23 23 24 18 17 19 14 9 13 13 8 15 24 28 20 24 23 27 27 31 29 29 25 24 21 19 21 22 21 21 23 23 23 22 18 16 16 19 18 20 20 17 18
19 23 24 29 32 28 29 20 14 12 10 21 28 28 23 17 13 9 11 21 24 25 13 28 33 22 30 28 32 34 34 34 27 27 26 23 23 21 20 20 22 22 23 23 23 22 20 18 18 19 22 22 21 22
17 17 21 25 29 29 30 25 14 10 9 13 27 32 29 22 22 19 19 22 30 31 22 19 22 33 28 33 35 30 29 28 29 32 33 31 29 26 23 21 24 24 21 23 28 29 24 24 22 23 28 27 25 28
16 15 17 22 24 27 29 23 17 11 9 7 19 28 32 31 28 26 25 24 21 27 32 29 24 16 21 26 32 30 28 27 27 24 22 22 21 25 28 24 26 28 29 33 33 26 22 26 28 32 35 32 31 33
17 18 18 20 23 26 27 24 20 14 7 4 5 9 17 23 27 34 31 28 28 26 27 31 30 24 23 21 20 22 27 27 27 26 24 26 23 22 23 26 29 32 30 35 37 34 31 30 34 41 42 39 39 42
19 20 21 21 21 19 20 21 17 13 11 10 6 4 9 11 12 18 24 28 31 35 36 36 36 37 37 37 33 30 29 27 27 28 27 28 28 26 25 25 27 33 28 34 42 41 43 41 40 40 43 44 44 46
Wind_Direction
313 311 305 303 305 306 309 309 308 314 320 321 327 332 336 338 337 337 341 344 348 353 352 352 347 350 357 3 7 19 28 34 61 57 48 56 46 35 26 38 22 69 88 115 144 148 169 183 167 175 185 188 186 187
316 316 307 304 306 308 309 305 301 307 315 319 324 327 333 335 335 335 337 342 345 349 353 351 351 349 355 4 4 10 33 53 56 61 57 64 61 44 45 35 61 76 76 81 158 165 87 134 166 170 179 171 188 190
304 308 312 307 302 304 310 303 296 302 311 317 321 325 328 333 331 333 334 342 343 344 351 350 349 348 351 0 358 12 11 73 41 63 70 70 49 39 38 57 89 92 83 130 127 111 91 157 168 174 176 176 170 194
306 305 311 310 307 304 306 304 296 301 307 313 320 321 323 328 328 330 333 338 342 345 347 350 352 347 345 1 356 11 42 82 81 81 57 23 18 36 36 43 53 120 92 66 360 168 126 130 160 190 175 186 180 174
303 304 309 308 309 308 308 301 298 301 305 310 317 318 319 323 325 329 330 334 340 343 345 351 347 347 346 355 5 14 41 52 50 76 71 31 3 8 26 38 46 90 123 139 159 347 137 154 120 153 197 182 184 169
307 309 309 305 309 308 306 301 299 300 305 308 312 314 316 320 322 328 326 331 336 340 343 350 350 346 355 345 358 15 32 30 11 34 40 5 355 3 23 33 34 27 33 233 268 328 335 344 162 181 162 205 210 196
312 312 309 309 310 311 310 303 297 297 302 302 307 310 312 316 319 324 324 329 332 337 341 347 352 350 324 327 344 357 24 21 13 19 354 278 310 12 25 14 29 26 30 34 0 346 296 312 148 170 156 149 163 172
314 315 313 311 309 307 309 310 309 299 298 297 302 306 310 310 314 319 317 322 326 334 339 343 348 351 335 324 346 351 335 11 9 9 16 1 3 346 345 329 331 9 20 17 82 139 133 307 151 139 158 150 152 165
310 310 309 308 307 307 308 304 299 295 294 294 301 303 306 307 307 312 314 319 321 326 333 336 349 350 343 347 345 306 309 298 4 357 3 7 0 360 352 342 321 299 321 32 56 114 148 151 25 126 148 175 163 174
311 313 313 310 308 307 306 307 301 293 300 297 298 300 302 300 303 308 310 309 316 323 330 333 345 345 338 332 311 307 265 275 267 311 340 342 348 355 356 340 327 231 207 7 19 282 177 176 207 188 157 145 186 197
323 327 326 326 326 324 317 311 306 301 301 298 300 299 304 303 303 304 305 309 313 318 329 335 343 341 343 333 321 306 288 255 254 246 271 292 317 330 352 6 339 232 191 170 99 216 207 211 195 201 210 211 206 202
320 323 324 325 325 325 323 323 321 314 309 302 306 313 309 305 308 304 303 304 311 316 316 322 333 345 341 334 334 337 323 279 260 249 243 269 280 294 327 350 357 356 191 183 177 206 215 209 199 200 224 221 225 223
319 319 317 316 318 319 319 320 319 317 314 311 310 307 301 301 304 303 305 303 304 309 300 290 303 321 323 322 318 322 334 332 297 262 252 249 258 271 299 304 311 358 327 199 197 197 205 204 202 200 206 219 231 230
310 312 311 308 305 305 306 307 307 306 302 299 301 301 295 298 299 296 294 295 300 306 297 294 306 311 312 318 320 310 307 316 330 321 256 241 254 250 261 311 310 297 319 228 204 209 213 191 195 202 200 209 214 222
306 306 305 303 300 297 295 295 295 294 296 295 296 294 288 289 292 291 288 292 292 301 309 304 317 316 308 307 302 302 307 303 318 324 288 226 228 230 271 290 289 264 259 225 207 205 213 217 202 213 207 209 213 206
301 301 301 299 296 293 291 289 287 287 289 290 291 284 279 278 279 282 279 277 274 279 286 292 293 300 307 299 299 294 296 300 304 314 304 247 241 245 255 293 292 256 241 241 221 211 217 216 229 224 201 209 210 215
298 298 298 296 293 289 286 283 283 281 283 285 283 278 276 278 271 272 274 270 260 251 248 267 269 270 288 293 292 290 288 298 296 301 319 272 242 233 250 269 281 268 247 234 230 212 204 206 213 225 218 215 210 206
296 295 293 292 289 286 286 283 281 279 274 276 280 277 275 274 271 268 266 264 261 256 255 251 275 268 270 288 273 274 286 291 294 296 303 275 221 245 266 274 259 257 253 244 232 233 222 213 220 221 217 223 225 219
294 293 291 289 288 285 283 281 278 276 274 276 275 273 269 270 272 267 265 263 262 261 256 245 250 257 264 261 278 270 268 268 270 272 285 290 296 272 273 255 233 242 253 251 241 235 238 236 228 232 232 225 228 234
293 291 289 288 286 283 281 280 278 278 276 270 268 268 266 263 261 262 262 261 260 257 255 251 251 262 262 261 262 256 254 246 249 273 263 243 234 259 252 270 242 219 232 245 248 242 251 250 234 234 242 240 239 238
291 291 289 287 286 285 284 282 281 277 273 270 266 261 257 257 258 257 257 256 254 256 252 250 250 252 252 258 263 257 254 251 250 252 259 252 257 248 268 274 265 259 242 238 245 235 236 247 246 240 243 244 242 244
287 285 284 283 281 278 278 278 275 274 270 268 265 261 258 254 250 251 253 255 256 255 256 251 247 243 239 246 253 259 251 254 246 234 247 246 245 252 249 243 270 280 261 256 246 235 239 247 244 237 235 243 244 244
289 287 284 281 279 276 274 272 270 268 265 262 260 260 259 256 252 249 249 249 251 248 246 250 251 247 249 245 247 253 254 250 243 235 243 250 251 254 247 233 236 262 274 265 244 233 242 246 250 245 243 244 244 242
299 297 294 291 283 278 272 269 266 263 260 257 253 251 251 252 252 250 249 248 247 251 252 251 252 250 247 244 237 235 237 239 243 238 246 249 248 244 249 240 233 251 265 271 256 246 265 264 249 236 245 247 246 253
19 15 11 357 342 317 289 270 263 261 256 249 248 247 245 247 250 250 247 245 241 240 240 241 244 246 246 250 245 244 237 232 233 238 246 243 240 242 225 231 230 236 245 266 262 252 270 285 275 264 251 249 248 248
7 2 1 5 359 356 349 325 258 218 234 236 230 232 237 240 245 244 246 251 246 241 239 235 232 232 232 240 236 221 216 232 241 245 238 240 236 234 236 241 236 239 248 268 269 256 270 283 274 270 261 261 264 265
10 5 358 356 356 350 339 332 309 252 243 213 200 165 137 120 197 190 172 284 252 240 232 217 223 220 234 231 228 237 242 242 240 245 238 235 243 239 237 240 233 230 244 257 254 245 253 263 268 275 276 275 273 272
29 30 21 14 10 7 0 328 311 296 232 205 186 182 164 158 146 158 212 227 217 221 222 200 216 252 232 238 224 228 230 237 249 248 244 251 260 261 250 244 241 244 246 249 240 248 259 273 276 277 277 279 283 286
13 15 11 6 359 356 358 343 317 302 268 214 199 196 199 206 220 218 192 204 213 222 209 207 215 240 239 242 229 221 229 237 245 250 247 247 259 258 253 239 249 255 256 258 255 257 270 275 283 283 282 284 286 286
359 6 7 6 2 357 354 359 349 323 287 221 203 212 220 229 231 212 209 206 214 219 221 220 229 228 244 232 206 200 214 233 248 257 258 254 252 255 253 237 249 251 256 254 247 253 265 275 283 275 277 284 288 290
349 356 357 359 0 355 356 1 1 358 353 225 206 212 222 230 237 236 236 234 230 225 226 231 236 242 219 218 220 226 233 239 244 240 244 255 238 233 234 249 260 260 262 267 257 259 272 271 269 269 278 281 283 287
335 339 339 340 353 1 7 5 8 10 17 65 188 210 220 231 247 241 250 256 258 260 247 234 237 231 232 239 234 238 237 233 235 241 247 252 251 243 248 259 263 264 264 251 249 251 266 279 286 284 278 277 280 285
320 320 322 325 332 335 349 5 7 10 18 26 44 178 216 230 244 250 253 260 263 263 262 258 255 259 261 254 245 245 249 251 252 257 256 253 245 240 245 252 255 263 266 265 253 259 267 275 278 275 271 274 280 284
Height
5732 5727 5723 5719 5716 5712 5707 5702 5697 5692 5687 5681 5675 5668 5661 5654 5648 5641 5634 5629 5623 5616 5607 5600 5595 5590 5584 5576 5571 5567 5565 5562 5560 5560 5558 5555 5553 5550 5548 5547 5546 5547 5547 5547 5550 5556 5558 5553 5559 5574 5586 5599 5607 5616
5725 5720 5715 5711 5707 5703 5699 5693 5689 5684 5680 5675 5670 5663 5656 5649 5644 5638 5632 5626 5620 5613 5607 5599 5594 5590 5583 5578 5574 5569 5567 5564 5563 5563 5561 5559 5556 5554 5551 5550 5550 5551 5552 5552 5554 5557 5553 5554 5566 5578 5591 5603 5605 5616
5716 5712 5707 5702 5698 5694 5690 5685 5681 5677 5674 5669 5664 5658 5652 5645 5639 5635 5629 5624 5619 5611 5605 5598 5593 5588 5585 5579 5575 5570 5566 5564 5564 5564 5563 5561 5558 5556 5554 5553 5553 5554 5554 5555 5555 5553 5553 5567 5577 5585 5587 5600 5596 5610
5707 5703 5698 5693 5689 5685 5681 5677 5674 5671 5668 5663 5658 5652 5646 5640 5635 5630 5625 5620 5616 5610 5603 5597 5592 5589 5585 5581 5577 5572 5566 5564 5565 5565 5564 5563 5562 5559 5557 5556 5554 5554 5556 5557 5557 5559 5562 5564 5575 5584 5583 5588 5593 5601
5697 5693 5689 5684 5680 5676 5673 5669 5666 5663 5660 5656 5651 5646 5640 5635 5630 5625 5621 5616 5612 5608 5602 5597 5591 5588 5586 5582 5578 5573 5568 5567 5567 5567 5566 5566 5565 5563 5561 5559 5557 5557 5558 5560 5562 5562 5564 5568 5564 5574 5584 5591 5600 5604
5688 5684 5680 5676 5672 5668 5664 5661 5658 5655 5651 5648 5644 5639 5634 5629 5624 5621 5617 5613 5608 5604 5599 5595 5590 5586 5583 5581 5579 5575 5571 5569 5567 5567 5567 5566 5565 5565 5564 5562 5562 5560 5561 5562 5562 5564 5566 5566 5569 5576 5578 5588 5597 5606
5679 5675 5671 5668 5664 5660 5656 5653 5649 5646 5643 5639 5636 5631 5628 5623 5619 5615 5613 5608 5605 5601 5597 5593 5589 5586 5584 5582 5580 5576 5572 5570 5567 5566 5565 5565 5565 5564 5565 5564 5564 5563 5564 5564 5564 5566 5569 5573 5577 5584 5586 5588 5595 5607
5671 5667 5663 5659 5654 5650 5647 5644 5640 5637 5634 5630 5627 5623 5620 5616 5612 5609 5606 5602 5600 5597 5594 5591 5587 5584 5582 5580 5577 5576 5573 5571 5568 5566 5565 5564 5564 5563 5565 5566 5565 5564 5565 5566 5568 5568 5570 5576 5583 5584 5586 5591 5595 5603
5662 5658 5654 5649 5645 5641 5637 5634 5630 5627 5624 5621 5618 5615 5612 5609 5606 5604 5600 5597 5595 5595 5591 5588 5585 5582 5579 5578 5576 5575 5573 5571 5569 5567 5565 5564 5563 5564 5562 5563 5564 5565 5566 5567 5568 5571 5573 5573 5578 5585 5589 5592 5597 5605
5652 5648 5644 5639 5635 5632 5627 5624 5621 5618 5615 5612 5610 5607 5603 5601 5599 5598 5596 5593 5591 5590 5587 5584 5582 5580 5578 5575 5574 5573 5571 5570 5569 5568 5566 5564 5563 5562 5561 5559 5560 5564 5565 5565 5566 5569 5573 5578 5581 5583 5590 5592 5597 5605
5645 5641 5636 5632 5627 5623 5619 5615 5612 5609 5605 5603 5601 5598 5597 5594 5593 5592 5590 5589 5587 5587 5584 5582 5579 5578 5576 5573 5572 5570 5568 5568 5567 5567 5565 5563 5562 5560 5559 5558 5555 5558 5561 5564 5565 5568 5571 5574 5576 5580 5585 5589 5594 5600
5638 5633 5629 5626 5622 5618 5613 5609 5605 5601 5598 5596 5594 5592 5590 5589 5589 5587 5585 5584 5583 5582 5581 5580 5578 5575 5574 5572 5569 5568 5566 5565 5563 5563 5563 5562 5561 5560 5558 5556 5556 5555 5558 5562 5565 5567 5569 5572 5575 5580 5585 5589 5595 5598
5630 5626 5622 5618 5614 5611 5607 5604 5599 5595 5593 5591 5590 5588 5586 5584 5582 5581 5580 5579 5578 5577 5577 5576 5576 5575 5573 5571 5568 5566 5564 5562 5561 5560 5560 5560 5559 5558 5556 5555 5554 5555 5554 5557 5561 5564 5566 5569 5572 5576 5582 5586 5590 5595
5620 5616 5612 5608 5605 5602 5599 5595 5593 5590 5587 5585 5584 5582 5579 5578 5577 5576 5575 5573 5573 5571 5570 5570 5571 5570 5569 5568 5565 5563 5561 5559 5558 5556 5556 5557 5557 5556 5555 5553 5552 5550 5553 5555 5558 5559 5563 5567 5570 5573 5576 5581 5587 5590
5608 5604 5601 5597 5594 5591 5588 5586 5584 5581 5580 5578 5577 5574 5572 5572 5570 5570 5569 5568 5567 5566 5566 5564 5564 5564 5564 5564 5563 5560 5558 5556 5555 5553 5552 5553 5553 5554 5553 5552 5552 5550 5549 5551 5555 5557 5561 5564 5566 5570 5571 5574 5579 5584
5595 5592 5588 5585 5581 5578 5577 5575 5574 5572 5571 5570 5568 5566 5563 5564 5563 5562 5562 5563 5561 5561 5561 5561 5559 5559 5559 5559 5559 5556 5554 5553 5552 5551 5551 5550 5551 5550 5549 5550 5550 5548 5547 5548 5549 5552 5555 5558 5563 5567 5567 5571 5574 5577
5579 5578 5575 5572 5568 5564 5563 5562 5561 5561 5561 5560 5559 5556 5554 5554 5555 5554 5553 5554 5554 5555 5555 5555 5554 5554 5554 5555 5554 5552 5551 5550 5548 5547 5547 5545 5545 5545 5547 5546 5545 5544 5544 5545 5547 5551 5553 5556 5560 5562 5563 5566 5571 5574
5564 5560 5557 5556 5554 5551 5550 5548 5547 5546 5548 5548 5547 5545 5544 5544 5546 5545 5544 5543 5544 5545 5545 5546 5548 5547 5547 5549 5549 5548 5548 5546 5544 5543 5543 5542 5542 5542 5542 5543 5542 5540 5541 5541 5542 5544 5547 5550 5552 5555 5558 5562 5565 5570
5546 5543 5539 5536 5536 5535 5532 5532 5531 5530 5533 5532 5533 5533 5533 5533 5532 5533 5534 5534 5534 5535 5536 5537 5537 5538 5540 5541 5542 5542 5542 5541 5541 5541 5540 5538 5538 5539 5539 5540 5540 5539 5539 5540 5540 5541 5542 5543 5547 5549 5551 5555 5558 5562
5527 5523 5520 5518 5517 5515 5514 5514 5513 5513 5517 5517 5517 5517 5517 5520 5519 5520 5522 5523 5523 5524 5526 5527 5529 5531 5531 5532 5533 5534 5535 5535 5535 5536 5537 5536 5536 5537 5538 5537 5537 5537 5537 5538 5538 5539 5539 5540 5543 5544 5544 5547 5551 5554
5504 5504 5500 5500 5497 5496 5496 5494 5494 5495 5495 5496 5500 5499 5502 5503 5505 5507 5508 5509 5511 5514 5516 5518 5519 5522 5523 5525 5525 5526 5528 5528 5529 5530 5532 5531 5531 5532 5533 5533 5534 5533 5534 5535 5535 5536 5536 5536 5539 5541 5540 5541 5544 5546
5487 5480 5479 5474 5475 5475 5477 5475 5473 5475 5478 5479 5480 5482 5485 5489 5491 5493 5495 5497 5500 5504 5504 5506 5508 5510 5512 5514 5516 5516 5518 5521 5522 5523 5525 5526 5527 5526 5527 5527 5529 5528 5531 5530 5532 5532 5534 5534 5535 5537 5537 5536 5537 5540
5464 5460 5457 5455 5453 5454 5457 5453 5455 5455 5459 5463 5464 5466 5469 5473 5477 5479 5481 5484 5485 5488 5490 5493 5497 5500 5503 5506 5507 5509 5510 5513 5514 5517 5519 5521 5521 5521 5521 5523 5525 5525 5526 5527 5528 5530 5530 5530 5530 5530 5532 5531 5532 5534
5444 5440 5437 5435 5434 5435 5435 5436 5437 5438 5442 5445 5449 5453 5456 5458 5462 5465 5467 5469 5473 5477 5480 5484 5487 5491 5494 5496 5498 5500 5502 5505 5507 5509 5511 5514 5516 5516 5516 5517 5519 5520 5521 5522 5522 5523 5524 5524 5525 5527 5527 5526 5527 5528
5439 5436 5432 5428 5424 5421 5420 5421 5423 5426 5426 5432 5437 5440 5445 5448 5451 5454 5456 5457 5460 5463 5467 5472 5477 5480 5483 5486 5491 5491 5492 5494 5498 5501 5503 5507 5508 5510 5511 5512 5514 5515 5516 5517 5518 5519 5519 5518 5518 5521 5523 5522 5523 5524
5440 5438 5433 5430 5426 5421 5418 5415 5413 5413 5419 5424 5427 5432 5435 5439 5443 5445 5446 5448 5450 5454 5458 5463 5467 5470 5475 5477 5479 5482 5484 5488 5491 5493 5497 5499 5501 5503 5504 5505 5507 5509 5510 5511 5512 5514 5514 5514 5513 5514 5516 5516 5516 5518
5441 5437 5433 5429 5425 5421 5418 5414 5412 5413 5416 5419 5423 5428 5432 5434 5438 5441 5442 5442 5443 5447 5450 5455 5459 5463 5465 5466 5469 5473 5476 5480 5483 5487 5490 5491 5493 5494 5496 5499 5501 5503 5504 5504 5506 5508 5508 5508 5508 5508 5507 5509 5510 5510
5441 5437 5433 5429 5424 5420 5415 5412 5410 5409 5411 5413 5417 5421 5425 5430 5431 5431 5433 5436 5439 5441 5445 5449 5452 5454 5453 5457 5462 5466 5468 5472 5474 5478 5482 5485 5486 5487 5488 5490 5492 5493 5495 5497 5499 5500 5501 5502 5502 5502 5501 5501 5502 5502
5442 5439 5435 5431 5425 5420 5416 5410 5407 5406 5406 5408 5412 5414 5417 5419 5422 5424 5426 5429 5433 5438 5440 5443 5445 5446 5449 5452 5455 5458 5462 5464 5466 5469 5473 5475 5478 5480 5481 5482 5483 5485 5486 5486 5488 5490 5493 5496 5495 5494 5493 5493 5494 5494
5443 5439 5436 5432 5426 5420 5415 5410 5406 5403 5403 5404 5407 5409 5411 5414 5416 5420 5422 5424 5427 5431 5434 5436 5438 5441 5444 5446 5449 5450 5453 5456 5459 5462 5465 5467 5469 5472 5474 5476 5478 5477 5478 5480 5481 5482 5483 5485 5486 5486 5484 5485 5485 5484
5443 5439 5436 5432 5427 5421 5416 5411 5407 5405 5401 5400 5403 5407 5409 5412 5415 5417 5418 5419 5422 5425 5428 5430 5434 5436 5438 5439 5440 5442 5445 5447 5450 5453 5456 5458 5460 5463 5464 5465 5466 5468 5470 5472 5473 5473 5474 5474 5474 5473 5473 5473 5473 5471
5440 5437 5434 5431 5428 5423 5418 5413 5409 5406 5403 5403 5403 5405 5408 5410 5412 5413 5415 5417 5418 5420 5422 5425 5427 5431 5434 5435 5436 5437 5439 5440 5442 5444 5446 5450 5453 5454 5455 5456 5457 5457 5457 5459 5461 5462 5462 5461 5461 5461 5460 5459 5459 5458
5436 5433 5431 5429 5427 5424 5421 5417 5413 5410 5409 5407 5407 5407 5407 5408 5409 5410 5412 5412 5413 5414 5416 5418 5420 5421 5424 5427 5429 5431 5433 5434 5436 5438 5440 5441 5443 5444 5446 5447 5448 5449 5449 5451 5452 5450 5449 5448 5447 5446 5445 5444 5444 5443